View from above orbital plane
|
View from above satellite
|
Ground track
|
The orbit data is extracted from the following two-line orbital elements,
1 05732U 71120B 21055.79871128 .00000022 00000-0 61350-5 0 9998
2 05732 81.2487 260.3630 0050971 210.9292 148.8873 14.05999241520297
Epoch (UTC): | 24 February 2021 19:10:08 |
Eccentricity: | 0.0050971 |
inclination: | 81.2487° |
perigee height: | 836 km |
apogee height: | 910 km |
right ascension of ascending node: | 260.3630° |
argument of perigee: | 210.9292° |
revolutions per day: | 14.05999241 |
mean anomaly at epoch: | 148.8873° |
orbit number at epoch: | 52029 |
The dashed part of the orbit path shows where the satellite is in the earth's shadow,
|
|